Skip Page Navigation
NASA JPL Caltech
NASA Logo - Jet Propulsion Laboratory + View the NASA Portal
+ Center for Near-Earth Object Studies
JPL Home Earth Solar System Stars & Galaxies Technology
JPL Solar System Dynamics
BODIES ORBITS EPHEMERIDES TOOLS PHYSICAL DATA DISCOVERY FAQ SITE MAP
IMPORTANT: The SSD Announcement email list is now available. Major changes are coming in the near future, including possible hostname and/or URL changes. To be notified of such changes, subscribe to this email list.

Please visit this page for more details.


JPL Small-Body Database Browser
Search: [ help ]  
71852 (2000 UU105)
Classification: Main-belt Asteroid          SPK-ID: 2071852
Ephemeris | Orbit Diagram | Orbital Elements | Mission Design | Physical Parameters | Discovery Circumstances ]

[ show orbit diagram ]
Orbital Elements at Epoch 2459000.5 (2020-May-31.0) TDB
Reference: JPL 23 (heliocentric ecliptic J2000)
 Element Value Uncertainty (1-sigma)   Units 
e .05180491025054684 4.2547e-08  
a 2.32106093950316 1.0765e-08 au
q 2.200818585846149 1.0051e-07 au
i 7.25158156550749 4.206e-06 deg
node 97.88724940729948 3.3684e-05 deg
peri 80.11822279709752 5.2011e-05 deg
M 52.40347219548012 3.9459e-05 deg
tp 2458812.487898210064
(2019-Nov-24.98789821)
0.00014137 TDB
period 1291.600609820179
3.54
8.9857e-06
2.46e-08
d
yr
n .2787239315798406 1.9391e-09 deg/d
Q 2.441303293160171 1.1323e-08 au
  Orbit Determination Parameters
   # obs. used (total)      930  
   data-arc span      10282 days (28.15 yr)  
   first obs. used      1991-01-11  
   last obs. used      2019-03-07  
   planetary ephem.      DE431  
   SB-pert. ephem.      SB431-N16  
   condition code      0  
   norm. resid. RMS      .5538  
   source      ORB  
   producer      Otto Matic  
   solution date      2019-Jul-13 09:21:56  

Additional Information
 Earth MOID = 1.21836 au 
 Jupiter MOID = 2.54192 au 
 T_jup = 3.565 
[ show covariance matrix ]

Ephemeris | Orbit Diagram | Orbital Elements | Mission Design | Physical Parameters | Discovery Circumstances ]

Physical Parameter Table
Parameter Symbol Value Units Sigma Reference Notes
absolute magnitude H 15.3   n/a MPO432271  

71852 (2000 UU105)          Discovered 2000-Oct-29 by LINEAR at Socorro
Reference: 20031109/Numbers.arcLast Updated: 2004-04-19
Ephemeris | Orbit Diagram | Orbital Elements | Mission Design | Physical Parameters | Discovery Circumstances ]
ABOUT SSD CREDITS/AWARDS PRIVACY/COPYRIGHT GLOSSARY LINKS
FirstGov 2020-Feb-20 11:04 UT
(server date/time)  
NASA Home Page
Site Manager:   Ryan S. Park
Webmaster  Alan B. Chamberlin